Погода в Нампуле

Мозамбик     15°07′08″S   39°15′43″E
темп.,
°C
ветер,
м/с
пор.,
м/с
влажн.,
%
обл.,
%
осадки,
мм/ч
давл.,
гПа
погр.,
м
14 апреля, ср
ср1423:00+19юз2998100 0.0 1017325
02:00+18юз249873 0.0 101692
05:00+18юз2698100 0.0 1015158
08:00+23ююз3981100 0.0 1017646
11:00+27ю455999 0.0 10151427
14:00+25ю2572100 0.0 1013313
17:00+23юв2583100 0.1 1014156
20:00+22ю2888100 0.4 1016356
15 апреля, чт
чт1523:00+20ююз279448 0.1 1016352
02:00+19ююз269868 0.1 1015190
05:00+18юз2598100 0.0 1015163
08:00+22ююз377895 0.0 1016644
11:00+26ююз346399 0.0 10151304
14:00+24ююз3470100 0.0 1013899
17:00+23ю1176100 0.0 101322
20:00+22ю1378100 0.0 101572
16 апреля, пт
пт1623:00+19юз23915 0.0 101563
02:00+18юз24945 0.0 1014101
05:00+17юз24965 0.0 1015110
08:00+22юз36740 0.0 1016538
11:00+26ююз34546 0.0 10141163
14:00+27ююз345241 0.0 10121528
17:00+23ююз227732 0.0 101433
20:00+20ю3109337 0.1 1017422
17 апреля, сб
сб1723:00+20ююз3119633 0.0 1016578
02:00+20ююз41190100 0.0 1015849
05:00+20ююз4119187 0.1 1017832
08:00+22ю510817 0.3 10191129
11:00+26ю586183 0.1 10171590
14:00+25ю687027 0.6 10161244
17:00+20ю5129553 1.3 1018821
20:00+19ю4129527 1.7 1020821
18 апреля, вс
вс1823:00+18ююз5129387 0.1 1020873
02:00+16ююз31192100 0.1 1019503
05:00+17ю41192100 0.3 1020842
08:00+20ю5107831 0.4 10211019
11:00+24ююз685750 0.1 10201711
14:00+24ю586269 0.2 10181449
17:00+20ююз49740 0.0 1018726
20:00+18ююз311901 0.0 1020612